Location: Defiance
(18.0333°N, 63.0333°W)
Time: 22:29:53
(UTC+00:00)

Daily predictions for brighter satellites

Satellite Brightness Start Highest point End
(mag) Time Altitude Azimuth Time Altitude Azimuth Time Altitude Azimuth
Cosmos 2237 Rocket 2.5 21:46:43 10° SSW 21:52:23 75° WNW 21:58:04 10° NNE
Meteor 1-11 Rocket 4.4 21:46:56 10° NNE 21:52:24 37° E 21:57:45 10° SSE
Feng Yun 1-1 Rocket 4.2 21:50:43 10° SSE 21:56:11 75° ENE 22:01:33 10° N
Cosmos 2242 Rocket 3.6 21:54:10 10° S 21:58:37 68° E 22:03:08 10° N
Cosmos 1536 3.9 22:00:41 10° NNE 22:03:54 24° E 22:07:08 10° SE
ASTRO E2 2.7 22:00:13 10° WNW 22:04:11 86° SSW 22:08:10 10° ESE
Okean-O 2.9 22:00:13 10° SSE 22:04:26 45° ENE 22:08:39 10° N
H-2A R/B 2.9 22:01:55 10° S 22:05:39 78° W 22:09:21 10° NNW
SKYMED 2 3.6 22:03:02 10° NNE 22:07:22 87° E 22:11:42 10° SSW
Cosmos 1703 Rocket 3.9 22:03:50 10° SSE 22:08:02 44° E 22:12:15 10° NNE
AQUARIUS 4.4 22:06:08 10° S 22:10:37 76° W 22:15:06 10° NNW
Abrixas rocket 4.3 22:09:50 10° SSE 22:10:57 11° SE 22:12:02 10° ESE
Cosmos 1092 Rocket 4.0 22:06:37 10° S 22:12:55 74° E 22:19:13 10° N
Okean 1 4.5 22:10:44 10° SE 22:13:56 23° E 22:17:09 10° NE
CORIOLIS 4.3 22:08:39 10° SSE 22:14:03 86° WSW 22:19:31 10° NNW
GPS 2-12 Rocket1 2.9 22:10:28 10° W 22:14:55 82° N 22:19:17 11° E
Cosmos 1844 3.9 22:10:24 10° NNW 22:16:00 76° WSW 22:21:33 10° S
NOAA 12 4.1 22:11:04 10° SSE 22:16:21 72° ENE 22:21:38 10° N
Cosmos 1500 3.0 22:13:20 10° N 22:17:04 70° E 22:20:46 10° S
Geosat 4.5 22:13:17 10° NE 22:18:01 42° ESE 22:22:43 10° S
CENTAUR R/B 3.3 22:12:21 10° NNW 22:21:00 87° ENE 22:29:38 10° SSE
YAOGAN 6 2.9 22:19:21 10° SSE 22:22:37 39° ENE 22:25:54 10° N
Aureole 1 Rocket 3.4 22:21:38 10° SSW 22:24:56 44° WNW 22:27:50 10° N
Cosmos 1844 Rocket 4.4 22:27:54 10° NW 22:32:57 36° WSW 22:38:01 10° S
CSL-04 Rocket 4.1 22:30:54 10° SE 22:35:40 35° ENE 22:40:25 10° N
USA 267 3.2 22:30:26 10° SE 22:36:56 74° NE 22:43:27 10° NNW
Lacrosse 5 3.4 22:40:26 10° SSE 22:43:48 18° ESE 22:44:14 18° ESE
Cosmos 1190 Rocket 3.9 22:38:40 10° S 22:43:51 76° ESE 22:48:45 12° NNE
FengYun 1-2 T 4.1 22:39:30 10° SSE 22:44:58 80° ENE 22:50:27 10° N
Cosmos 676 Rocket 4.4 22:40:13 10° SSE 22:45:00 39° E 22:47:13 26° NE
OAO 3 Copernicus 4.3 22:41:19 10° WSW 22:46:23 81° NNW 22:49:03 28° NE
CSL-04 Debris 4.3 22:41:32 10° SSE 22:46:48 49° ENE 22:52:02 10° N
GEOS 3 Rocket 3.7 22:46:05 22° NE 22:49:24 59° ESE 22:54:37 10° SSW
YAOGAN 1 2.6 22:46:32 10° SSE 22:50:44 56° ENE 22:54:58 10° N
ADEOS Rocket 3.3 22:53:58 31° ENE 22:55:26 36° E 23:00:33 10° SSE
Cosmos 1908 Rocket 3.4 22:51:09 10° N 22:55:31 87° E 22:59:50 10° S
Cosmos 1939 Rocket 4.3 22:52:01 10° SE 22:53:53 23° SE 22:53:53 23° SE
GOES 2 Rocket 4.4 22:48:18 10° WNW 22:56:29 54° NNE 22:59:24 32° ENE
Cosmos 1954 Rocket 4.1 22:51:50 10° S 22:56:47 49° E 22:58:32 35° NE
GPS 2-18 Rocket1 3.1 22:54:37 10° WNW 22:58:24 59° N 22:58:48 54° NE
ATLAS 3B R/B 3.2 22:52:31 10° NW 22:59:15 62° WSW 23:06:14 10° SSE
Cosmos 1666 2.7 22:58:12 10° N 23:01:54 75° W 23:05:36 10° S
SWIFT 2.2 23:00:08 10° WSW 23:04:22 89° S 23:05:01 63° E
H-2A ROCKET BODY 3.0 22:55:59 10° SW 23:05:00 30° SSE 23:06:29 24° SE
NOAA 11 4.2 23:00:04 10° SSE 23:05:21 56° ENE 23:10:40 10° N
Meteor 1-19 Rocket 4.1 23:03:41 10° S 23:09:23 84° E 23:13:15 21° N
Delta 128 4.0 23:05:55 10° SW 23:10:16 43° SSE 23:10:40 42° SE
Cosmos 1943 4.4 23:06:42 10° SSE 23:09:57 25° SE 23:09:57 25° SE
STARLINK-80 3.4 23:08:54 10° SW 23:12:25 75° S 23:12:25 75° S
Cosmos 1553 Rocket 4.2 23:12:29 37° NE 23:14:24 47° E 23:20:31 10° SSE
H-II Stage 2 4.0 22:48:39 10° W 23:15:24 42° NNW 23:17:41 32° NNE
IRIDIUM 106 4.4 23:10:33 10° SSE 23:15:21 53° E 23:15:21 53° E
Cosmos 2221 Rocket 3.8 23:14:08 10° S 23:18:38 72° W 23:20:16 38° N
Meteor 2-13 Rocket 4.3 23:12:53 10° S 23:18:56 82° E 23:22:23 27° N
STARLINK-48 4.2 23:17:29 10° SSW 23:20:18 44° S 23:20:18 44° S
SL-16 R/B 3.9 23:18:06 10° SW 23:22:59 30° WNW 23:27:53 10° N
Cosmos 2278 Rocket 2.4 23:18:59 10° NNW 23:24:36 70° WSW 23:30:11 10° S
CZ-4 R/B 3.3 23:21:47 10° SSW 23:25:19 29° W 23:28:48 10° NW
CZ-3B R/B 2.9 23:19:56 10° SW 23:26:44 64° SSE 23:30:02 44° E
Atlas Centaur 2 3.2 23:19:56 10° WNW 23:28:10 56° NNE 23:29:48 49° ENE
Meteor 2-4 Rocket 3.7 23:22:39 10° S 23:28:35 78° E 23:29:36 61° NNE
Cosmos 1603 3.7 23:23:30 10° S 23:28:44 63° SE 23:28:44 63° SE
Cosmos 1655 Rocket 4.1 23:24:09 10° S 23:30:30 75° W 23:35:03 20° N
CZ-3C R/B 3.7 14:46:42 10° SW 23:39:01 89° SSE 23:43:36 48° E
Cosmos 1417 Rocket 4.4 23:45:18 77° S 23:45:18 77° S 23:50:59 10° S
